Tracking 31027 objects as of 19-Jul-2025
HD Live streaming from Space Station
objects crossing your sky now

STARLINK-1797

Track STARLINK-1797 now!
10-day predictions
STARLINK-1797 is classified as:


NORAD ID: 46698
Int'l Code: 2020-073AE
Perigee: 553.6 km
Apogee: 555.2 km
Inclination: 53.1 °
Period: 95.6 minutes
Semi major axis: 6925 km
RCS: Unknown
Launch date: October 18, 2020
Source: United States (US)
Launch site: AIR FORCE EASTERN TEST RANGE (AFETR)
Your satellite tracking list
EKRAN 2 DEB
Track 1 satellite(s)




NASA's NSSDC Master Catalog

Two Line Element Set (TLE):
1 46698U 20073AE  25199.43824402  .00000897  00000-0  79092-4 0  9993
2 46698  53.0537 213.7946 0001126  86.4214 273.6903 15.06392248261813
Source of the keplerian elements: AFSPC